Preview of NWS' New Version of Forecast
This preview is not operational and should not be used for support decisions.

Regional Weather Roundup (RWR)

Issued by National Weather Service (NWS)

                            
000
ASUS42 KTBW 250815
RWRFL 
FLORIDA REGIONAL WEATHER ROUNDUP
NATIONAL WEATHER SERVICE TAMPA BAY RUSKIN FL
400 AM EDT TUE JUN 25 2019

NOTE: "FAIR" INDICATES FEW OR NO CLOUDS BELOW 12,000 FEET WITH NO
SIGNIFICANT WEATHER AND/OR OBSTRUCTIONS TO VISIBILITY.

FLZ001>010-012>015-112-114-115-250900-
PANHANDLE FLORIDA
  
CITY           SKY/WX    TMP DP  RH WIND       PRES   REMARKS
PENSACOLA      FAIR      82  81  96 W7        30.01R HX  95           
PENSACOLA NAS  MOCLDY    82  80  94 SW7       30.01R                  
MILTON NAS     FAIR      78  76  93 W6        30.02R                  
CRESTVIEW      FAIR      74  71  91 SW3       30.03R                  
DUKE FIELD     FAIR      79  78  96 SW6       30.01R                  
VALPARAISO     FAIR      81  78  91 CALM      30.00R                  
MARY ESTHER    PTCLDY    83  79  89 CALM      30.00R                  
TRI COUNTY     FAIR      75  75 100 CALM      30.02R FOG              
PANAMA CITY    FAIR      80  76  87 SW3       30.00S                  
TYNDALL AFB    FAIR      84  78  83 SW10      30.00R                  
APALACHICOLA   FAIR      83  77  82 W7        30.00S                  

STATION/POSITION SKY/WX   TEMP    WIND        PRES    WAVE   SWELL
                          AIR SEA DIR/SP/G            HT/PER HT/PER
                          (F)     (DEG/KT/KT) (MB)    (FT/S) (FT/S)
30.1N   87.6W                                   N/A     3/ 6
29.2N   88.2W                     200/ 12/ 14 1016.9
PANAMA CITY BEAC           84 85  230/ 11/ 13 1016.3
TOWER C          NOT AVBL

$$
FLZ011-016>038-118-127-128-134-139-239-250900-
NORTH FLORIDA
  
CITY           SKY/WX    TMP DP  RH WIND       PRES   REMARKS
MARIANNA       FAIR      77  77 100 W5        29.99S                  
TALLAHASSEE    FAIR      79  78  97 W5        29.99S                  
PERRY          FAIR      78  77  97 SW3       30.00S                  
LIVE OAK       PTCLDY    73  73 100 CALM      29.99S                  
CROSS CITY     FAIR      79  78  96 SW3       30.00S FOG              
LAKE CITY      FAIR      72  70  94 CALM      30.00S                  
GAINESVILLE    FAIR      79  77  94 W6        30.02S                  
PALATKA        MOCLDY    73  73 100 CALM      29.99F                  
MAYPORT NAS    FAIR      80  71  74 SW9       29.97F                  
JACKSONVILLE   MOCLDY    76  68  76 W3        29.97F                  
JAX NAS        FAIR      81  70  69 W7        29.99S                  
JAX CECIL      FAIR      75  72  88 SW5       29.98F                  
FERNANDINA BEA FAIR      77  69  78 SW7       29.97S                  
ST AUGUSTINE   FAIR      77  72  84 W5        30.00R                  
PALM COAST     FAIR      76  74  94 W3        29.99F                  

STATION/POSITION SKY/WX   TEMP    WIND        PRES    WAVE   SWELL
                          AIR SEA DIR/SP/G            HT/PER HT/PER
                          (F)     (DEG/KT/KT) (MB)    (FT/S) (FT/S)
SHELL POINT      NOT AVBL
KEATON BEACH               84     250/ 11/ 13 1015.8F
CEDAR KEY                  83     280/  6/  7 1016.1S
FERNANDINA                 81 84  230/  3/  6 1015.6F
30.7N   81.3W                 82                N/A     2/ 3
MAYPORT                    80 82  240/  7/  8 1015.4F
31.4N   80.9W              82 83  270/ 16/ 19 1013.8S   2/ 4   2/24
ST AUGUSTINE               79 80  250/  4/  5 1015.7R

$$
FLZ040-043>046-052-053-057-058-063-144-250900-
INTERIOR CENTRAL FLORIDA
  
CITY           SKY/WX    TMP DP  RH WIND       PRES   REMARKS
OCALA          FAIR      76  76 100 SW3       30.00F                  
LEESBURG       FAIR      78  75  90 CALM      30.01S                  
SANFORD        FAIR      79  75  87 W7        29.99F                  
ORLANDO EXEC   FAIR      81  75  82 W6        30.00F                  
ORLANDO INTL   FAIR      78  74  87 S3        30.00F                  
KISSIMMEE      FAIR      77  74  90 SW3       30.02S                  
WINTER HAVEN   FAIR      79  74  84 CALM      30.02S                  
LAKELAND       FAIR      77  73  88 CALM      30.02S                  
SEBRING        FAIR      77  73  89 N5        30.01F                  
OKEECHOBEE     FAIR      73  72  94 CALM      30.00S                  

$$
FLZ041-047-054-059-064-141-147-250900-
EAST CENTRAL FLORIDA
  
CITY           SKY/WX    TMP DP  RH WIND       PRES   REMARKS
DAYTONA BEACH  FAIR      76  76 100 W6        29.99F                  
DELAND         FAIR      77  73  88 W5        29.99F                  
JFK SPACE CTR  FAIR      75  64  67 CALM      29.99S                  
CAPE CANAVERAL FAIR      80  39  23 CALM      29.98F                  
PATRICK AFB    FAIR      81  79  94 W9        29.99S                  
MELBOURNE      FAIR      78  74  87 W6        30.00S                  
VERO BEACH     FAIR      79  75  87 SW3       30.00F                  
FT PIERCE      FAIR      76  73  91 SW3       30.00S                  
STUART         CLOUDY    81  73  78 SW3       30.02S                  

STATION/POSITION SKY/WX   TEMP    WIND        PRES    WAVE   SWELL
                          AIR SEA DIR/SP/G            HT/PER HT/PER
                          (F)     (DEG/KT/KT) (MB)    (FT/S) (FT/S)
28.5N   80.2W              82 82  230/  8/  8 1015.5F   1/ 9   2/ 9
28.9N   78.5W              83 83  210/ 10/ 14   N/A     2/ 8   2/ 8
TRIDENT PIER               80 76  260/  5/  6 1017.3R
28.4N   80.5W                 79                N/A     1/10
27.5N   80.2W                 81                N/A     1/ 8

$$
FLZ050-056-061-142-242-148-248-149-249-151-251-155-255-
160-260-250900-
WEST CENTRAL FLORIDA
  
CITY           SKY/WX    TMP DP  RH WIND       PRES   REMARKS
CRYSTAL RIVER  FAIR     N/A N/A N/A CALM      30.01S                  
INVERNESS      FAIR      73  73 100 CALM      30.01S FOG              
BROOKSVILLE    FAIR      73  72  96 CALM      30.01F                  
CLEARWATER AIR FAIR      79  73  83 CALM      30.01S                  
ST PETE CLEARW FAIR      78  75  90 CALM      30.01S                  
TAMPA INTL     FAIR      81  76  84 CALM      30.01F                  
PLANT CITY       N/A    N/A N/A N/A MISG        N/A                   
MACDILL AFB    FAIR      80  75  83 CALM      30.00F                  
PETER O KNIGHT CLOUDY    81  81 100 CALM      30.01S                  
ST PETERSBURG    N/A    N/A N/A N/A MISG      29.99F                  
SARASOTA       FAIR      78  75  90 CALM      29.98F                  
VENICE         FAIR      79  75  89 N3        30.01S                  

STATION/POSITION SKY/WX   TEMP    WIND        PRES    WAVE   SWELL
                          AIR SEA DIR/SP/G            HT/PER HT/PER
                          (F)     (DEG/KT/KT) (MB)    (FT/S) (FT/S)
27.3N   84.2W                 86                N/A     1/ 8
CLEARWATER BEACH           84 90  270/  6/  7 1016.3F
MIDDLE TAMPA BAY           83     330/  4/  4 1016.3F
VENICE                     81 86   10/  4/  5 1016.0F

$$
FLZ066-069-070-075>078-162-262-165-265-250900-
SOUTHWEST FLORIDA AND KEYS
  
CITY           SKY/WX    TMP DP  RH WIND       PRES   REMARKS
PUNTA GORDA    FAIR      76  74  93 E3        30.02S                  
FT MYERS       FAIR      79  32  18 CALM      30.00F                  
SOUTHWEST INTL FAIR      80  75  84 CALM      30.00F                  
NAPLES         FAIR      83  77  82 CALM      30.00F                  
IMMOKALEE      MOCLDY    75  73  94 NW5       29.98F                  
MARATHON       FAIR      84  75  74 VRB3      30.01S                  
KEY WEST NAS   FAIR      84  74  71 SE6       30.01F                  
KEY WEST INTL  FAIR      84  75  74 E6        30.01F                  

STATION/POSITION SKY/WX   TEMP    WIND        PRES    WAVE   SWELL
                          AIR SEA DIR/SP/G            HT/PER HT/PER
                          (F)     (DEG/KT/KT) (MB)    (FT/S) (FT/S)
NAPLES                     83 89              1016.2F
DRY TORTUGAS               85      80/  7/  7 1016.4F
SAND KEY                   84                 1016.3F
SOMBRERO KEY               84                 1015.5F
LONG KEY                   85     130/ 11/ 17 1016.3

$$
FLZ067-068-071>074-168-172>174-250900-
SOUTHEAST FLORIDA 
  
CITY           SKY/WX    TMP DP  RH WIND       PRES   REMARKS
W PALM BEACH   FAIR      82  75  79 SW3       30.00F                  
FT LAUDER-EXEC FAIR      82  75  79 CALM      30.00F                  
FT LAUDERDALE  FAIR      82  75  79 CALM      30.00F                  
POMPANO BEACH  FAIR      83  75  77 SW3       30.00F                  
PEMBROKE PINES FAIR      82  74  76 CALM      30.02F                  
OPA LOCKA      FAIR      82  75  79 SW3       30.01F                  
MIAMI          FAIR      82  72  71 CALM      30.01F                  
WEST KENDALL   FAIR      80  74  81 CALM      30.01S                  
HOMESTEAD      FAIR      79  77  94 CALM      30.00S                  

STATION/POSITION SKY/WX   TEMP    WIND        PRES    WAVE   SWELL
                          AIR SEA DIR/SP/G            HT/PER HT/PER
                          (F)     (DEG/KT/KT) (MB)    (FT/S) (FT/S)
VIRGINIA KEY               86 90  230/  6/  8 1015.8
LAKE WORTH                 84 82  210/  5/  7 1017.1F
FOWEY ROCKS                84 84  200/  7/  7 1016.4F
SETTLEMENT POINT           85     230/  9/ 10 1016.1F

$$